Theta_e
327 328 326 328 334 330 330 335 334 332 329 320 317 326 331 331 330 329 326 325 327 326 323 322 321 318 318 317 315 313 312 311 310 309 309 309 308 308 308 308 309 310 308 305 304 305 305 305 305 304 304 304 304 303 303 303 303 304 304 303 303 302 301 300 300 300 302 302 301 300 299 298 298 298 298 298 298 298 297 297 297 296 296 296 296 296 296
330 328 326 328 333 330 326 329 331 336 336 326 328 335 331 330 333 331 325 324 326 325 322 321 319 317 317 315 313 312 311 310 310 309 309 308 308 308 308 308 309 308 305 304 304 304 304 304 304 304 303 303 303 302 302 302 302 301 302 301 300 299 298 298 299 299 300 301 301 300 299 298 298 298 298 298 298 298 297 297 297 296 296 295 295 295 296
330 328 326 324 330 333 330 327 325 330 334 331 333 334 330 333 333 324 322 326 325 322 320 319 317 316 315 314 313 312 311 310 309 309 308 308 307 308 307 307 308 305 302 303 304 304 304 304 303 303 303 303 302 302 302 301 301 300 300 299 298 297 297 297 298 298 299 300 300 300 299 299 298 297 298 298 298 298 297 297 296 296 295 295 295 295 295
333 328 326 324 327 330 332 332 328 327 330 330 329 328 330 333 329 322 323 327 324 321 319 317 316 315 314 314 313 312 311 310 309 308 308 307 307 307 306 306 307 305 302 303 303 303 303 303 303 303 302 302 302 302 301 301 300 300 299 298 298 297 297 296 297 297 297 298 298 298 297 297 296 296 297 298 297 296 295 294 294 294 294 293 293 294 294
333 329 329 327 327 328 330 329 323 321 324 325 326 327 326 325 323 322 325 325 322 319 317 316 316 315 314 314 312 312 311 310 309 308 307 307 306 306 306 306 306 304 302 303 303 303 303 303 303 302 302 302 302 301 301 301 300 299 299 298 298 298 297 296 296 296 296 296 296 295 295 295 296 297 297 296 294 294 293 293 293 292 292 292 292 293 293
332 328 329 327 326 328 328 321 316 318 321 324 326 326 324 321 321 322 323 321 319 318 317 317 316 315 314 313 312 311 310 309 309 308 306 306 306 306 306 305 304 303 303 303 303 303 303 303 303 302 302 302 301 301 301 300 300 299 299 298 298 298 297 296 296 296 295 295 295 295 295 295 296 296 296 295 294 294 293 292 292 292 292 292 292 292 293
333 329 328 326 326 329 324 317 315 315 318 320 321 320 320 321 321 321 322 320 318 317 317 316 315 314 313 312 311 311 310 309 308 306 305 306 305 306 306 305 303 302 303 303 303 302 302 303 303 302 302 301 301 301 300 300 299 299 299 298 298 298 297 296 296 296 295 295 295 295 295 295 295 295 295 294 294 294 293 293 293 292 292 292 292 292 293
327 330 330 326 324 322 318 316 316 315 317 320 322 323 321 319 319 320 320 319 317 317 316 315 314 313 312 311 311 309 308 307 306 306 305 305 305 304 304 303 302 302 303 303 303 302 302 302 302 302 301 301 301 301 300 299 299 299 299 299 298 298 298 297 296 296 296 295 295 295 295 295 295 295 294 294 294 294 294 293 293 292 292 292 292 292 293
321 327 327 322 321 323 321 319 318 319 321 322 327 332 325 319 319 320 318 317 317 316 315 313 312 311 311 311 310 308 307 306 305 305 304 304 304 303 303 303 303 303 303 303 302 302 302 302 302 302 301 301 301 300 300 299 299 299 299 298 298 298 298 297 296 296 296 296 295 295 295 295 295 294 294 294 294 294 293 293 293 292 292 292 292 292 293
318 323 326 324 327 331 328 323 321 322 323 323 327 332 327 320 319 318 316 317 316 314 313 312 311 311 312 311 309 307 306 305 304 304 303 303 303 302 302 303 303 302 302 302 302 302 302 301 302 302 301 301 300 300 300 299 299 299 298 299 299 299 298 298 297 296 296 296 295 295 295 295 295 294 294 294 294 293 293 293 293 292 292 292 292 292 293
319 326 332 329 329 331 328 324 322 321 321 321 324 329 329 321 317 317 316 315 314 313 312 311 311 313 314 312 309 306 305 304 304 303 303 302 302 302 302 302 302 302 302 302 302 302 301 301 301 302 301 301 300 300 300 299 299 299 299 299 299 299 299 298 297 296 296 296 295 295 295 295 295 295 294 294 294 294 293 293 293 292 292 292 292 292 293
324 329 333 328 325 325 322 321 322 321 319 318 322 330 330 320 316 317 315 314 313 312 311 311 312 314 315 312 308 305 304 304 303 303 303 302 302 302 302 302 302 302 302 302 301 301 301 300 301 301 302 301 300 300 300 299 299 299 299 299 299 299 299 298 298 297 296 296 296 295 295 295 295 295 295 294 294 294 294 293 293 292 292 292 292 292 292
326 330 333 328 325 325 321 319 321 320 318 318 324 333 329 318 315 316 313 312 312 310 310 312 312 312 312 309 306 305 304 304 303 303 303 302 302 302 302 302 302 301 302 302 301 301 301 300 300 301 301 301 300 300 300 299 299 299 299 299 299 299 299 299 298 297 296 296 296 295 295 295 295 295 295 294 294 294 294 294 293 293 292 292 292 292 291
323 328 331 327 324 323 320 319 318 316 319 326 329 326 320 314 314 315 312 312 311 310 311 312 310 308 308 306 305 304 304 303 303 302 302 302 302 302 302 302 301 301 301 301 301 301 301 300 300 300 300 301 300 300 299 299 299 299 300 299 299 299 299 299 298 298 297 296 296 296 295 295 295 295 295 295 294 294 294 294 293 293 292 292 292 292 291
321 326 328 327 325 321 317 317 317 317 324 330 323 315 314 314 314 314 312 312 311 311 310 309 307 306 306 305 304 304 303 303 303 302 301 301 301 301 301 301 301 301 301 301 300 300 300 300 300 299 300 300 300 300 299 299 299 300 300 299 299 299 299 298 298 298 297 297 297 296 296 295 295 295 295 295 295 294 294 294 293 293 292 292 292 292 291
325 330 329 325 323 319 315 317 320 321 323 321 315 313 314 315 312 311 311 311 309 309 308 306 306 306 305 304 304 303 303 303 302 302 301 301 301 301 301 301 301 301 301 301 300 300 300 300 300 299 300 300 300 300 299 299 299 299 299 299 299 299 299 299 298 298 298 298 297 297 296 296 295 295 295 295 295 294 294 294 293 293 292 292 292 292 291
320 324 324 320 316 314 314 315 318 319 316 313 312 313 314 313 311 310 309 308 307 306 306 305 305 305 304 304 303 303 303 303 302 302 301 301 301 301 301 301 301 301 301 301 300 300 300 300 300 299 299 299 299 299 299 299 299 299 298 299 299 299 299 299 299 299 299 298 298 298 297 297 296 296 295 295 295 295 294 294 294 293 293 292 292 292 291
315 316 316 314 313 314 313 312 312 313 312 310 311 313 312 311 311 309 307 306 306 305 305 305 305 304 303 303 303 302 303 303 302 301 301 301 301 301 301 301 301 301 301 300 300 300 300 300 299 299 299 299 299 298 298 298 299 299 299 299 299 299 299 299 299 299 299 299 298 298 297 297 297 296 296 295 295 295 294 294 294 293 293 293 292 292 292
319 319 316 313 313 312 310 310 310 310 311 310 310 311 310 310 309 307 306 306 305 305 306 305 304 304 303 303 303 302 302 302 301 300 300 300 300 300 301 301 301 301 300 300 300 300 299 299 299 299 299 299 298 298 298 298 299 299 299 299 299 298 299 299 299 299 298 298 298 298 297 297 297 296 296 295 295 295 295 294 294 293 293 293 292 292 292
319 318 313 311 311 310 309 311 311 310 310 310 309 309 308 307 307 306 305 305 305 306 306 304 304 303 303 303 303 303 302 302 301 300 300 300 300 300 300 300 301 301 300 300 300 300 299 299 299 299 299 299 299 298 299 299 299 299 299 299 299 299 298 298 298 298 298 297 297 297 297 297 296 296 296 295 295 295 295 295 294 293 293 293 293 292 292
315 314 311 311 313 312 310 309 309 308 308 308 307 307 306 306 306 305 305 305 305 305 305 304 303 303 302 302 302 302 301 301 300 300 300 300 300 300 300 300 301 300 300 300 300 300 300 299 299 299 299 299 299 299 299 299 299 298 299 299 299 299 298 298 297 297 297 297 297 297 297 296 296 296 295 295 295 295 295 295 294 293 293 293 293 293 292
318 317 314 313 316 317 312 309 308 308 307 306 307 306 306 306 305 305 305 305 305 304 304 303 303 302 302 302 301 301 300 300 300 300 299 299 299 299 299 300 300 300 300 300 300 300 299 299 299 299 299 299 299 299 298 298 298 298 299 299 299 299 298 298 298 297 297 297 297 297 296 296 296 296 296 295 295 295 295 295 295 294 293 293 293 293 293
322 318 313 312 316 316 311 308 308 307 306 306 306 306 306 306 305 305 305 305 305 304 304 303 302 302 301 301 300 300 300 300 300 299 299 298 298 298 299 299 299 300 300 300 300 300 300 299 299 299 299 299 299 298 298 299 299 299 298 298 298 299 299 298 298 298 297 297 297 297 296 296 296 296 296 295 295 295 295 295 295 294 294 293 293 293 293
317 314 312 312 314 313 309 308 308 307 306 306 306 306 306 305 305 304 305 305 305 304 304 303 302 301 300 300 300 299 299 299 299 298 298 298 298 298 298 299 299 299 299 299 300 300 300 300 300 299 299 299 299 299 299 299 299 299 297 297 298 299 298 298 298 298 297 297 297 297 296 296 296 296 296 295 295 295 295 295 295 295 294 293 293 293 293
314 312 311 311 311 310 308 307 307 307 306 306 306 306 305 304 304 303 304 304 304 304 304 302 300 300 300 299 299 298 298 298 298 298 298 298 298 298 298 298 298 298 299 299 300 300 300 300 300 299 299 299 299 299 299 299 299 298 297 297 298 299 298 298 298 298 297 297 297 297 296 296 296 296 296 296 295 295 295 295 295 295 294 294 293 293 293
311 310 309 309 308 307 307 307 307 308 306 305 306 305 304 303 303 303 303 304 304 303 302 300 299 299 299 299 298 298 298 297 298 298 297 297 298 298 298 298 298 298 298 299 299 300 300 300 300 299 299 299 299 299 299 299 299 299 297 297 298 299 298 298 298 297 297 297 297 297 296 296 296 296 296 296 296 295 295 295 295 295 295 294 294 294 294
308 308 309 309 308 307 307 308 308 308 306 304 304 304 303 303 303 303 303 303 303 301 300 299 299 299 299 298 298 298 297 297 297 297 297 297 298 298 298 298 299 298 299 299 300 300 300 300 300 299 299 299 299 299 299 299 299 298 297 297 298 299 299 298 298 298 297 297 297 297 296 296 296 296 296 296 296 295 295 295 295 295 295 295 294 294 294
308 308 310 311 309 308 308 307 306 305 304 303 303 303 303 303 303 303 303 302 300 299 298 298 299 299 298 298 297 297 297 297 297 297 297 298 298 299 299 299 299 299 299 299 299 300 300 300 300 300 300 299 299 299 299 299 299 298 297 297 298 298 298 298 298 297 297 297 297 297 297 296 296 296 296 296 296 295 295 295 295 295 295 295 295 294 294
310 310 311 310 308 307 306 305 305 305 304 303 303 303 303 303 303 303 302 300 298 298 298 298 298 298 298 297 297 297 297 297 296 297 297 298 299 299 299 299 300 300 299 299 299 300 300 300 300 300 299 299 299 299 299 299 298 298 297 297 297 298 298 297 297 297 297 297 297 297 296 296 296 296 296 296 296 296 295 295 295 295 295 295 295 294 294
309 310 310 308 306 307 307 306 306 306 305 304 304 303 303 304 303 302 301 299 298 298 298 298 298 297 297 297 297 297 297 297 297 297 298 298 299 299 300 300 300 299 299 299 299 299 300 300 300 300 299 299 299 299 299 299 298 298 297 297 297 297 296 296 296 296 296 297 297 297 296 296 296 296 296 296 296 296 296 296 295 295 295 295 295 295 295
307 307 308 307 306 307 306 306 306 306 305 305 305 304 304 304 303 301 299 298 298 297 297 297 297 297 297 297 297 297 297 297 297 298 298 298 298 299 300 300 300 299 299 299 299 299 300 300 300 299 299 298 298 298 298 299 299 298 298 298 297 296 296 295 295 296 296 296 297 297 296 296 296 296 296 296 296 296 296 296 296 295 295 295 295 295 295
308 307 307 307 307 307 306 306 307 307 306 306 305 305 304 302 301 300 299 298 297 297 297 297 297 297 297 297 297 297 298 298 298 298 298 298 298 299 299 300 300 299 299 299 299 300 300 300 300 299 299 298 298 297 298 299 299 298 298 297 297 296 296 295 295 296 296 296 296 297 296 296 296 296 296 296 296 296 296 296 296 295 295 295 295 295 295
308 308 307 307 307 307 306 307 306 307 307 306 304 302 301 299 298 298 297 297 296 296 296 297 297 297 297 297 297 297 297 297 297 297 298 298 298 298 299 299 299 300 299 299 300 300 300 300 300 299 299 299 298 297 297 297 297 297 296 296 296 296 296 295 295 295 296 296 296 296 296 296 296 296 296 296 296 296 296 296 296 295 295 295 295 295 295
308 308 307 307 307 307 307 307 306 306 306 305 302 299 298 298 298 297 296 296 296 296 297 297 297 297 297 297 297 297 296 296 296 296 297 298 298 298 298 299 299 299 299 299 300 300 300 299 299 299 299 298 298 297 297 297 297 296 296 296 296 296 297 295 294 295 296 296 296 296 296 296 296 296 296 296 296 295 295 296 296 295 295 295 295 295 295
306 307 306 305 305 305 305 306 306 305 305 305 302 299 298 298 298 297 296 296 296 296 297 297 297 297 297 297 296 296 296 296 296 296 297 298 298 298 298 298 298 298 299 299 299 300 300 299 299 299 299 298 298 297 297 297 297 297 297 296 296 297 297 296 294 294 295 295 295 295 295 295 295 296 295 296 296 295 295 295 295 295 295 295 295 295 295
305 308 307 305 303 303 302 302 302 302 301 301 300 298 298 298 297 297 296 297 297 297 297 297 296 296 296 296 296 296 297 297 297 297 298 298 298 298 298 298 298 298 298 299 299 300 300 299 299 299 298 298 298 298 297 296 297 297 297 296 296 297 297 296 295 294 294 295 295 295 295 295 295 296 296 296 296 295 295 295 295 295 295 295 295 295 295
304 306 305 303 302 302 301 301 301 300 299 298 297 298 298 297 297 297 297 297 297 297 296 296 296 296 296 297 297 297 298 298 298 298 298 298 298 298 298 298 298 298 298 298 299 299 300 299 299 298 298 298 298 298 298 297 298 297 296 295 296 297 297 297 295 294 294 295 295 295 295 295 295 295 295 295 295 295 295 295 294 295 295 295 295 295 295
303 303 303 302 302 302 302 302 302 301 299 297 297 298 298 298 297 297 297 297 297 297 297 297 297 297 297 297 297 297 298 298 298 298 298 298 298 298 298 298 298 298 298 298 299 299 299 299 299 298 298 298 298 298 299 299 299 298 296 295 296 297 297 296 295 294 294 295 295 295 295 295 295 295 295 295 295 295 295 294 294 294 294 294 294 295 295
305 303 302 302 302 302 301 301 301 301 299 298 298 298 298 298 298 297 297 297 297 297 297 297 297 297 297 296 296 297 297 298 298 298 298 298 298 298 299 299 299 299 299 299 299 299 299 299 299 299 299 299 298 298 299 299 299 298 297 296 296 297 296 295 295 294 295 295 295 295 295 295 295 294 294 294 294 294 294 294 294 294 294 294 294 294 294
306 302 301 301 301 301 300 299 300 300 299 299 299 298 298 298 298 297 297 297 297 297 297 297 296 296 296 296 296 297 298 298 298 298 298 299 299 299 299 299 299 300 299 299 299 299 299 299 298 299 299 299 299 299 299 298 298 299 298 297 296 296 296 295 294 294 295 295 295 294 294 294 294 294 294 294 294 294 294 294 294 294 294 294 294 294 294
304 301 301 301 301 300 300 299 299 299 299 299 299 299 299 298 298 298 297 297 297 297 297 297 297 297 297 297 297 298 298 298 298 298 298 298 298 297 297 298 299 300 299 299 299 299 299 299 299 299 299 299 299 299 298 298 297 298 298 297 296 296 296 295 295 295 295 295 295 294 294 294 294 294 294 294 294 294 294 294 294 293 294 294 294 294 294
302 300 300 301 300 300 300 299 299 299 299 299 299 300 299 299 299 298 298 298 298 298 298 298 298 298 298 298 298 298 298 298 298 298 297 298 298 297 297 298 299 299 299 299 299 299 299 300 299 299 299 299 299 299 298 297 297 298 298 297 296 297 296 295 295 295 295 295 295 295 295 294 294 294 294 294 294 294 294 294 294 293 293 294 294 294 293
301 300 300 300 300 300 300 299 299 299 298 298 299 300 299 299 299 299 299 299 299 298 298 298 298 298 298 298 298 297 297 297 297 297 297 298 298 298 298 298 299 299 299 299 299 299 299 299 300 300 300 300 300 299 298 297 297 298 298 297 296 296 297 296 296 295 295 295 295 295 295 294 294 294 294 294 294 294 294 294 294 294 293 294 294 293 293
301 300 300 300 300 301 300 300 299 298 298 298 299 299 299 299 299 299 299 299 299 299 298 298 298 297 297 298 297 297 297 297 296 296 295 295 296 297 298 299 299 299 299 298 298 298 298 298 299 299 300 300 300 300 299 298 297 297 297 297 296 296 296 296 296 296 295 295 295 295 295 295 295 294 294 294 294 294 294 294 294 294 293 293 293 293 293
301 301 301 301 301 300 300 300 300 300 300 300 299 299 299 299 299 299 300 299 299 299 299 299 299 298 298 297 297 298 298 298 298 297 296 294 294 296 299 299 299 299 299 298 297 296 296 297 299 300 300 301 300 300 299 299 298 297 297 297 297 296 295 295 296 296 295 295 295 295 295 295 295 295 295 294 294 294 294 294 294 294 294 293 293 293 293
301 301 301 301 301 300 300 301 302 302 301 300 298 298 299 299 299 299 300 300 300 300 300 300 300 300 300 299 299 298 298 298 298 298 298 298 298 299 300 300 299 299 298 297 296 296 296 298 300 300 300 300 300 300 299 299 298 297 297 297 297 297 295 295 296 296 295 295 295 295 295 295 295 295 295 294 294 294 294 294 294 294 293 293 293 293 293
301 301 301 300 300 301 301 301 301 300 299 298 297 297 298 299 299 299 300 300 301 301 301 301 301 301 301 300 300 299 297 297 296 297 298 299 300 300 300 300 299 299 298 297 296 295 297 299 300 300 300 300 300 300 299 299 299 298 297 298 298 297 296 295 295 296 295 295 295 295 295 295 295 295 295 295 294 294 294 294 294 294 294 293 293 293 293
301 300 300 300 300 300 300 299 299 298 298 298 298 298 298 299 299 299 300 300 300 301 301 301 301 301 301 301 300 300 300 299 297 297 299 300 300 300 299 299 299 298 298 297 296 296 296 298 300 300 300 300 300 299 299 299 299 298 297 298 298 297 296 295 295 295 295 295 295 295 295 295 295 295 295 295 294 294 294 294 294 294 294 294 293 293 293
301 301 301 300 300 299 298 297 297 298 298 298 299 299 299 299 299 299 299 299 300 300 300 300 300 301 301 301 300 300 301 300 300 300 301 301 301 300 300 299 299 298 298 298 298 297 296 298 300 300 300 300 300 300 299 299 299 298 298 297 297 297 297 296 296 296 296 295 295 295 295 295 295 295 295 295 295 295 295 294 294 294 294 294 293 293 293
301 300 300 299 299 299 298 298 298 298 298 299 299 299 299 299 298 298 298 299 299 299 300 300 300 300 300 301 300 301 301 300 301 301 301 301 301 301 300 299 298 298 298 298 299 298 297 297 298 298 298 299 299 299 299 299 299 298 298 297 297 297 297 296 296 296 296 295 295 295 295 295 295 295 295 295 295 295 294 294 294 294 294 294 294 293 293
300 299 299 299 299 299 299 299 299 299 299 299 300 300 299 299 298 298 299 299 299 299 299 299 299 300 300 300 301 301 301 300 300 301 301 301 301 301 301 300 300 299 299 299 299 299 298 298 298 298 298 299 299 300 300 299 299 299 298 298 297 297 297 296 296 296 296 296 296 295 295 295 295 295 295 295 295 295 294 294 294 294 294 293 293 293 293
300 300 300 300 300 300 300 300 300 300 300 300 300 300 300 299 299 299 299 299 299 299 299 299 299 300 300 300 301 301 301 300 301 301 301 301 301 301 301 301 301 301 300 300 300 300 300 299 299 299 299 299 300 300 300 300 299 299 299 298 298 297 297 296 296 296 296 296 296 295 295 295 295 295 295 295 295 294 294 294 294 294 293 293 293 293 293
Wind_Speed
3 4 5 1 7 5 3 4 3 3 2 5 9 7 6 8 6 5 10 16 15 15 16 18 18 17 17 16 14 13 13 13 12 12 11 11 10 10 9 8 8 8 7 10 14 17 19 21 23 24 25 25 24 23 22 21 21 19 18 18 19 19 19 20 20 18 17 16 17 18 20 20 20 21 22 22 21 22 23 24 24 25 24 24 25 26 27
5 7 7 1 8 7 4 5 4 1 3 4 5 3 3 6 5 6 14 15 10 10 13 12 13 13 13 14 14 14 14 14 14 13 12 11 10 10 9 8 7 7 9 12 15 17 20 24 25 25 24 25 24 24 23 24 24 24 23 22 22 21 20 20 20 20 19 17 16 17 18 19 19 19 20 20 20 21 22 22 23 24 24 25 26 26 27
5 7 7 3 8 10 6 5 6 6 5 5 5 4 4 7 6 8 14 11 3 4 9 10 12 12 13 15 15 15 15 14 15 14 12 11 10 10 9 8 7 8 10 13 15 18 21 24 25 25 24 25 25 24 24 25 25 25 24 24 24 23 22 20 20 21 21 19 17 16 17 17 18 18 18 18 19 21 21 22 21 22 24 25 26 26 26
3 4 5 4 6 10 8 4 6 7 3 3 3 3 3 5 10 12 12 8 5 7 10 12 13 14 16 17 17 15 13 14 15 15 13 12 11 10 9 9 8 8 10 14 16 19 22 25 26 26 26 26 25 25 25 25 25 24 23 24 23 23 22 21 20 21 21 20 20 18 17 17 17 18 19 19 21 22 22 22 22 23 24 24 25 25 25
2 4 2 4 3 6 2 2 2 2 2 2 3 1 2 4 12 12 7 7 9 12 14 15 16 17 18 17 16 15 13 14 14 14 14 13 11 11 10 9 9 10 13 17 19 21 24 26 27 27 27 27 26 24 24 24 24 24 23 22 21 21 22 22 22 22 22 22 22 21 20 19 18 18 20 21 23 24 24 25 25 25 25 25 25 25 25
3 5 4 4 2 3 4 5 3 4 3 4 5 2 2 3 3 3 3 8 14 16 17 19 19 17 16 14 13 14 14 14 13 13 13 12 11 11 10 9 11 13 17 20 22 24 26 27 28 28 28 27 25 24 23 23 23 23 22 21 20 20 21 21 22 23 23 23 24 23 23 22 21 20 21 21 22 24 25 26 27 27 27 27 26 25 25
3 2 4 3 3 4 4 5 3 4 5 7 8 5 4 4 3 0 7 13 18 18 15 15 15 13 13 13 11 12 13 13 14 14 13 12 12 11 10 9 12 16 20 22 23 25 26 28 29 29 28 27 26 23 22 22 23 22 21 19 18 19 19 20 21 22 22 22 22 23 23 23 23 22 20 19 20 21 23 26 27 27 28 27 27 26 25
2 2 3 2 3 4 4 5 3 3 6 7 7 4 3 3 3 3 10 12 14 15 13 12 12 11 12 10 7 8 10 11 13 15 14 13 13 12 12 14 16 20 24 26 26 26 26 28 30 30 28 27 25 24 22 22 21 20 19 18 17 17 18 19 19 19 20 20 20 20 21 21 22 21 20 20 20 20 22 25 26 28 28 28 27 27 26
2 3 2 0 2 4 2 2 2 4 5 6 6 3 2 3 2 3 10 13 13 15 14 13 13 13 12 8 3 5 9 10 11 13 13 14 15 15 18 21 23 25 28 28 28 27 27 28 31 31 29 27 26 24 22 21 20 19 18 18 17 16 17 17 17 17 18 18 18 18 18 19 20 20 21 21 21 21 23 25 27 28 28 28 27 26 27
2 4 2 1 1 3 5 6 7 5 4 5 6 5 2 4 2 5 10 15 15 15 15 15 15 13 11 7 4 6 10 10 11 13 14 16 18 20 22 24 25 27 29 29 29 28 26 27 29 30 28 27 26 24 22 21 20 18 18 17 16 15 15 16 16 16 16 17 17 17 18 18 19 20 21 21 21 22 23 25 27 27 28 29 28 27 27
2 4 3 3 3 4 6 7 6 5 5 5 5 4 3 5 5 7 11 14 15 15 17 18 17 13 10 8 7 8 12 13 13 14 15 17 20 22 24 26 27 28 29 29 28 28 26 26 28 30 28 27 26 24 22 20 18 17 17 16 15 14 14 14 14 15 16 16 17 17 17 18 18 19 20 20 21 22 24 26 27 27 28 29 30 29 28
3 4 2 2 3 4 5 6 5 5 5 5 6 1 5 7 9 10 13 16 15 15 15 16 15 12 9 9 10 12 15 16 17 18 18 19 22 23 24 27 28 28 29 29 28 27 26 25 27 29 28 27 25 22 20 19 17 16 17 16 15 14 13 13 13 14 15 15 16 17 17 17 17 18 19 20 21 23 25 27 28 28 28 29 29 29 28
3 4 2 1 3 4 4 5 7 6 4 4 4 5 6 9 12 12 14 15 15 15 15 12 9 5 4 9 13 14 15 16 17 20 22 22 24 25 26 28 28 29 29 29 27 25 24 24 26 27 27 27 25 22 19 18 16 16 16 16 15 13 12 12 12 12 13 14 15 15 15 16 17 17 18 20 21 23 25 27 28 29 29 28 29 30 29
2 3 2 0 3 4 4 5 4 4 3 3 6 5 4 11 14 11 13 14 13 13 12 7 5 7 11 14 15 15 15 15 15 19 22 22 23 25 27 28 28 28 28 27 26 24 24 25 26 25 26 27 25 22 19 17 16 14 14 15 15 13 12 12 11 11 11 12 13 13 13 15 16 17 17 19 21 23 25 27 28 28 29 29 29 30 31
2 2 2 1 3 4 9 10 3 2 3 5 5 1 4 10 12 12 13 12 11 10 9 7 9 13 16 16 14 14 14 15 16 20 22 22 23 24 26 27 28 29 27 25 25 25 25 25 24 22 24 26 25 22 19 16 14 13 12 13 13 13 12 11 10 10 9 9 10 11 12 13 15 16 17 18 20 22 24 26 27 27 28 29 29 30 32
3 2 2 3 4 5 7 8 4 4 4 4 5 6 6 6 8 10 11 10 10 11 11 11 14 16 16 16 15 14 13 14 16 19 21 23 24 24 25 27 29 29 26 24 25 26 25 24 23 22 23 24 24 21 17 15 14 13 12 11 12 12 12 11 10 9 8 7 7 8 9 11 13 15 16 17 18 20 22 24 26 26 26 27 28 29 30
3 4 5 4 3 3 2 0 1 3 4 3 5 8 9 8 7 8 9 10 11 12 14 15 15 15 16 16 15 14 13 13 15 18 21 24 25 25 26 28 29 28 26 24 25 25 24 23 22 21 21 23 23 20 18 17 17 16 15 14 13 12 12 11 10 8 7 6 5 5 7 9 11 14 15 15 16 17 19 22 24 24 24 25 26 28 29
1 1 2 1 2 2 2 3 2 1 3 3 5 7 8 8 7 8 9 10 12 14 15 15 14 14 16 16 15 14 14 13 16 20 23 24 25 26 26 27 28 27 25 24 24 24 23 23 22 20 19 20 21 20 19 19 19 17 16 15 14 13 12 11 10 8 7 6 5 4 6 7 9 11 13 14 15 15 17 19 21 22 23 24 25 27 28
1 0 2 2 3 2 1 3 3 4 4 3 4 6 7 7 7 9 10 11 13 14 15 16 15 15 16 17 14 13 13 13 16 20 22 23 25 27 27 28 28 27 25 24 23 22 22 22 23 22 20 19 19 19 18 17 15 14 14 13 12 12 12 11 10 9 7 7 6 5 6 6 7 9 11 12 13 14 14 16 19 20 21 22 24 25 27
2 2 3 1 3 3 2 2 2 3 5 5 5 6 7 8 9 10 10 12 12 11 13 16 17 16 15 16 15 12 11 13 16 20 23 24 26 27 28 29 29 27 25 23 22 22 22 23 23 22 20 19 19 19 17 14 13 12 12 11 10 11 11 11 11 10 8 7 7 6 6 6 7 8 9 11 12 12 12 13 16 18 18 19 20 21 22
2 2 2 2 3 4 4 3 2 3 5 7 8 8 10 12 12 11 10 11 12 12 13 15 17 17 15 15 15 14 11 12 16 20 23 25 27 27 29 29 29 27 25 23 23 23 24 24 24 22 21 20 21 19 17 14 12 12 11 10 10 10 10 10 10 9 9 8 7 6 6 6 7 7 9 10 11 10 10 10 13 15 16 17 18 18 19
1 4 4 5 3 1 1 2 3 4 5 8 10 10 10 12 13 13 13 12 12 15 17 17 16 15 14 14 16 15 13 15 20 23 24 25 26 28 29 29 28 27 25 23 23 23 23 23 23 22 21 21 21 19 17 13 11 11 11 11 11 11 10 9 9 8 8 7 6 6 6 6 7 7 8 9 10 9 9 9 10 12 14 15 16 17 18
5 5 6 6 4 3 2 4 5 5 6 9 11 10 11 12 12 13 14 14 13 14 16 19 19 16 14 17 18 14 14 20 25 27 26 26 25 27 29 28 27 26 25 23 23 22 20 21 22 21 20 20 19 17 15 12 11 11 10 10 11 12 11 9 8 7 7 6 5 5 5 6 7 6 6 8 9 9 8 8 9 10 12 12 13 14 15
2 4 6 5 3 4 5 6 6 6 6 9 9 9 10 10 10 12 13 13 14 13 12 15 21 21 20 22 21 17 17 23 26 26 27 29 28 27 28 28 27 26 25 25 23 21 19 20 21 20 19 19 17 16 14 13 12 10 9 9 11 12 11 9 8 8 6 5 4 4 4 5 6 6 5 6 7 8 8 8 8 9 10 11 12 13 14
2 3 5 4 5 6 6 5 6 6 6 8 9 8 9 10 11 13 12 11 14 16 12 11 17 23 23 23 22 22 23 24 26 27 28 29 29 28 27 28 27 26 25 24 22 20 18 19 20 21 20 18 18 16 15 14 13 11 9 9 12 13 12 10 9 8 7 5 4 4 3 3 4 4 4 4 5 7 8 8 8 9 10 10 11 13 14
5 7 8 7 7 7 7 6 5 5 6 9 9 7 10 13 13 14 15 14 16 19 18 15 16 20 23 23 24 25 25 25 27 29 28 27 27 27 27 27 27 25 24 23 22 19 18 17 18 19 19 17 16 15 14 15 14 11 8 9 12 13 11 9 9 9 8 6 4 3 2 2 2 3 3 3 4 5 7 8 8 8 9 9 10 12 13
7 10 11 9 6 4 5 6 6 6 7 10 10 8 12 17 17 15 16 17 17 19 21 22 22 21 21 24 25 26 26 26 26 27 27 26 27 28 29 28 26 25 24 23 21 20 18 17 16 17 16 14 13 13 13 15 15 12 9 10 13 12 9 7 7 8 8 7 5 3 2 2 2 2 3 3 3 3 5 7 7 7 8 9 10 11 12
7 6 7 8 8 7 5 6 8 8 8 11 12 12 14 16 15 13 12 13 15 17 19 23 26 24 22 24 25 24 24 25 24 24 26 28 28 29 28 27 26 25 24 22 21 20 19 17 16 16 14 13 12 13 14 16 14 11 10 12 13 12 9 6 5 6 8 8 6 5 3 2 2 1 2 2 2 3 4 5 6 6 7 8 8 9 10
4 3 4 5 8 8 7 7 9 8 8 11 14 14 13 13 11 10 9 10 13 14 15 19 24 25 24 25 26 24 22 22 23 25 27 29 29 28 27 26 25 24 22 21 20 20 19 18 17 16 14 13 12 13 15 16 14 12 12 13 13 11 8 6 5 6 8 9 9 7 5 3 3 2 0 1 2 3 4 5 5 5 6 7 8 8 10
3 5 6 7 9 10 10 9 8 8 8 10 11 11 11 11 10 8 8 10 12 12 14 18 21 22 23 25 26 26 26 25 26 28 29 29 29 28 26 25 24 23 22 21 21 20 20 19 18 17 15 13 12 12 14 15 15 13 13 13 11 9 6 5 4 4 7 10 10 9 7 5 4 3 2 2 3 3 4 4 5 6 5 6 7 8 9
5 7 9 9 9 11 11 8 8 8 8 9 10 10 10 11 10 9 8 9 9 12 16 19 20 21 23 25 26 28 29 28 28 28 28 28 28 27 26 25 25 23 23 23 22 21 20 19 17 17 15 13 11 11 14 17 17 14 13 12 10 7 5 4 4 4 6 8 10 11 9 6 5 5 3 3 3 4 4 4 5 6 6 6 6 7 8
8 8 9 9 8 9 9 7 7 7 7 8 10 10 9 10 10 9 8 9 11 15 18 19 20 22 24 26 27 28 28 28 28 27 27 27 28 27 26 26 25 24 24 24 23 22 21 19 17 16 15 13 11 11 14 18 18 16 13 12 10 8 5 4 5 6 7 7 9 11 10 8 6 6 4 3 3 4 5 5 5 6 6 6 5 6 7
10 7 6 8 8 8 8 7 7 7 7 7 8 8 8 10 11 10 10 13 16 18 18 19 21 24 26 27 27 28 27 26 24 24 25 26 27 27 27 26 25 24 24 24 24 23 22 20 18 17 16 14 13 12 13 16 18 16 14 12 11 8 6 5 6 8 8 8 9 10 10 9 8 6 6 4 3 3 5 6 6 6 7 7 6 5 6
11 9 8 9 8 9 8 7 6 6 6 7 7 8 10 13 14 14 15 17 17 17 19 22 24 26 27 27 27 26 25 21 18 19 23 26 27 27 26 25 25 25 24 24 25 24 22 21 20 19 18 16 14 13 13 15 16 15 13 13 12 9 7 7 7 8 9 9 9 9 10 11 9 7 6 6 4 3 4 6 7 7 7 8 6 5 5
9 9 9 8 8 8 8 7 7 7 7 6 7 8 12 15 16 16 18 19 19 20 23 25 26 27 27 26 24 24 24 22 21 23 26 28 28 27 25 24 24 24 24 25 26 25 23 22 21 20 19 17 15 13 13 15 15 13 12 12 12 10 8 8 8 8 8 8 8 8 8 9 9 8 8 7 6 4 4 5 5 6 8 8 7 6 5
9 9 7 6 9 11 10 9 10 10 8 7 8 9 12 16 19 19 20 22 23 24 25 26 26 26 25 25 25 25 26 26 26 26 27 28 29 27 25 23 23 22 22 24 25 25 25 24 22 20 19 18 16 14 13 13 13 12 11 13 13 11 10 10 9 8 8 7 6 7 7 7 8 9 9 8 7 6 5 4 4 5 6 7 7 6 5
10 10 8 6 9 12 12 12 14 15 13 11 13 14 15 17 21 23 24 23 24 26 27 27 26 25 25 27 29 29 28 29 29 28 28 29 28 25 23 22 22 21 21 23 24 25 26 26 23 20 19 19 18 16 15 13 11 10 11 13 15 13 11 11 11 10 8 7 7 8 9 8 9 9 8 8 8 7 6 4 4 4 5 4 4 5 5
10 13 12 12 12 13 13 15 18 19 17 14 15 18 21 22 23 24 24 24 26 29 30 29 29 28 27 27 27 27 28 29 30 29 29 27 25 23 22 22 22 22 22 23 24 24 26 26 24 22 20 20 19 18 17 15 14 12 10 12 15 13 11 12 12 10 8 8 9 10 10 9 9 9 8 8 9 9 8 6 5 4 4 3 3 3 4
8 9 12 14 14 14 14 15 18 20 19 17 16 19 22 25 25 24 24 25 28 31 31 30 28 26 24 24 24 25 27 29 30 30 29 26 25 24 23 23 24 23 22 23 24 24 24 25 24 23 21 20 20 20 19 17 16 15 13 13 15 14 12 12 13 11 9 10 11 12 11 11 10 10 9 9 10 10 10 8 6 5 5 4 3 3 4
6 7 10 12 12 13 14 14 15 17 21 22 21 21 22 24 25 25 23 24 27 30 31 30 26 23 22 22 23 24 27 29 30 30 29 27 25 24 22 23 24 24 22 23 25 24 22 23 24 24 23 21 20 20 20 19 18 18 16 15 15 15 14 14 13 12 11 12 13 13 13 12 12 12 11 11 11 11 11 9 8 7 7 7 6 5 5
8 10 12 12 12 13 14 15 15 16 19 23 25 26 26 26 25 24 24 26 28 28 29 30 29 26 25 26 26 27 29 30 30 30 30 28 26 23 20 22 26 26 25 25 26 24 22 22 23 24 25 23 22 22 21 20 20 20 18 17 17 17 16 16 15 13 12 13 15 15 15 14 14 14 13 13 13 13 12 11 10 9 8 9 8 7 6
10 12 12 12 12 13 15 15 15 15 17 20 24 28 29 29 28 27 27 29 30 28 27 29 31 31 30 30 29 28 28 30 30 30 29 30 29 26 24 26 30 30 28 28 28 27 25 23 22 22 23 23 24 25 23 21 21 22 20 19 19 19 18 18 17 16 15 14 15 16 17 17 17 16 15 15 15 14 13 13 12 11 10 10 10 9 8
12 13 11 11 12 14 16 16 16 16 16 18 23 28 30 29 29 29 30 30 30 29 28 29 30 31 32 32 29 26 26 28 29 29 29 32 33 32 30 30 31 31 30 30 30 29 28 27 25 24 24 24 26 27 26 24 23 23 22 21 21 21 20 19 19 18 18 17 16 17 19 20 20 19 18 17 16 16 15 15 14 13 12 12 12 11 10
14 14 13 13 14 15 16 16 16 16 16 18 22 27 29 29 28 30 31 31 30 29 29 29 29 29 29 29 27 26 26 27 28 28 27 25 26 30 33 33 31 28 28 29 30 29 30 29 28 27 27 27 28 29 29 27 25 24 24 24 23 23 22 22 21 22 21 20 19 19 20 21 21 21 20 19 18 17 17 16 16 15 14 14 14 13 12
15 16 16 16 16 16 17 17 17 16 18 19 22 25 28 29 29 30 32 32 31 31 31 30 30 28 27 27 28 30 32 33 34 33 29 22 20 26 34 36 33 30 27 26 27 29 30 29 27 25 24 23 26 29 31 29 26 25 26 26 25 24 23 23 23 24 24 22 21 21 22 22 22 22 21 20 19 18 17 17 17 17 17 17 16 15 14
16 17 18 18 17 17 19 21 21 21 21 20 18 21 26 29 30 31 32 32 32 32 31 30 30 29 29 30 31 31 30 30 33 36 36 31 28 30 33 34 34 33 29 26 25 28 30 28 25 22 21 22 25 29 32 30 27 26 27 28 28 26 25 24 24 25 25 24 23 22 22 23 23 22 21 21 20 18 17 17 18 19 19 19 18 17 16
17 17 18 18 19 19 21 22 22 22 19 16 13 17 24 28 29 30 32 32 32 32 31 31 31 31 32 32 32 31 28 24 25 30 35 37 35 33 31 30 30 30 29 27 26 28 28 28 26 24 24 25 27 30 32 31 29 27 28 29 29 28 26 25 25 26 25 22 21 21 22 22 23 22 21 20 20 18 17 17 18 20 21 21 20 19 17
18 18 19 20 21 21 21 22 20 18 18 18 18 22 26 28 28 28 30 30 30 31 31 32 32 33 33 33 33 34 33 28 25 26 32 37 36 34 32 30 27 25 23 24 26 27 28 28 28 28 28 28 30 32 33 33 30 29 29 30 31 31 28 25 25 25 24 23 22 21 21 21 21 20 20 20 19 18 17 17 18 19 21 21 21 20 19
22 21 21 21 21 21 21 20 17 16 19 23 24 26 28 28 26 25 27 28 28 28 29 30 31 32 33 33 33 34 35 34 30 29 31 34 34 33 32 31 29 26 23 22 23 27 29 31 32 32 32 31 31 32 34 34 32 30 29 29 31 32 31 27 24 23 23 23 22 21 21 21 21 21 20 19 19 18 18 18 17 17 18 19 21 21 21
21 20 20 20 21 22 22 21 18 18 21 24 24 26 27 26 23 22 25 27 26 26 27 29 31 32 33 34 33 34 35 36 36 33 31 30 29 29 29 29 29 29 27 25 24 26 30 34 36 36 35 32 30 30 32 34 34 32 30 30 31 33 33 29 25 23 22 22 21 21 22 23 22 21 19 19 19 19 18 18 17 16 17 18 20 21 21
21 20 21 23 24 26 27 26 25 25 26 26 26 26 27 26 24 24 26 28 26 25 24 25 27 30 32 33 34 35 36 37 37 36 33 30 28 28 27 27 28 30 30 29 28 28 31 34 36 36 34 32 29 27 29 32 34 34 32 32 32 33 34 32 29 26 24 22 21 22 23 24 22 20 20 20 20 20 19 18 17 17 18 18 18 19 20
24 24 24 25 25 26 27 28 28 29 29 28 28 28 28 26 24 24 25 27 28 28 26 24 25 29 32 33 34 36 38 37 37 36 35 33 32 30 29 28 29 29 30 30 30 30 32 34 35 35 35 33 29 26 26 29 33 34 34 34 34 35 35 34 31 28 25 23 22 24 25 24 22 21 21 21 21 20 19 18 18 18 18 18 17 17 18
Wind_Direction
329 326 284 180 100 100 97 96 114 129 155 169 162 181 191 150 152 203 178 166 169 175 177 172 166 161 155 151 147 142 141 141 139 138 135 133 131 128 125 128 132 129 127 124 118 116 116 112 111 112 111 110 109 105 103 104 105 107 107 101 95 91 87 83 81 83 89 93 89 80 74 71 70 67 62 57 53 47 43 41 38 35 34 31 28 26 24
11 350 320 360 109 104 63 48 31 55 151 160 142 149 149 124 121 154 158 164 175 171 171 166 154 148 143 140 141 143 145 145 142 141 139 136 132 128 128 132 132 129 129 126 119 116 116 115 116 115 112 111 109 105 102 102 103 105 104 99 93 89 85 83 83 85 88 93 93 84 74 69 66 63 60 57 52 45 40 37 34 31 30 29 27 25 23
356 346 348 26 114 113 90 54 15 19 80 93 89 114 115 89 82 119 137 139 139 150 148 141 139 140 139 142 148 149 150 148 144 143 141 137 132 127 129 132 129 129 130 125 119 117 120 121 121 119 116 114 111 106 103 105 106 105 102 97 93 87 83 84 86 86 86 88 88 82 74 66 60 57 56 56 50 43 37 34 30 27 26 26 25 23 22
315 325 16 23 95 99 88 53 12 4 44 108 128 166 170 136 127 124 126 139 168 163 146 140 144 148 148 152 154 151 152 150 147 147 145 139 135 132 132 132 131 132 132 126 122 122 125 126 126 124 121 117 113 109 108 109 110 106 101 99 97 91 85 84 86 87 85 83 79 73 68 65 62 60 60 57 50 44 40 35 32 29 27 25 24 22 22
250 276 352 347 46 89 75 325 343 307 277 152 137 7 349 134 138 139 154 181 168 154 149 150 155 160 160 160 157 153 152 151 149 148 145 140 138 137 135 134 133 134 134 130 127 128 129 130 130 127 123 121 118 114 113 114 113 108 104 103 102 98 92 88 88 88 87 82 76 71 68 67 67 67 64 59 52 47 43 39 36 33 30 27 25 24 23
202 265 340 13 62 152 234 271 241 217 219 143 129 106 53 93 139 165 151 144 148 152 160 162 163 164 161 156 156 154 152 153 151 147 143 141 140 139 136 135 134 134 132 130 129 130 131 133 133 130 125 123 121 120 119 118 117 113 110 109 108 104 99 94 92 91 88 85 80 75 73 71 70 68 65 60 54 47 43 39 35 32 29 26 25 25 24
170 274 20 78 187 227 267 305 294 199 161 127 111 79 43 27 341 181 128 140 153 158 159 158 153 149 144 143 150 154 153 153 147 142 144 145 143 143 140 138 137 135 133 131 132 132 132 134 136 133 128 126 125 125 124 122 120 118 115 115 114 110 104 98 95 93 90 88 83 79 76 73 71 69 65 59 52 45 40 37 34 31 28 25 24 25 25
137 65 50 155 228 282 325 343 334 144 133 124 109 68 1 347 331 163 142 143 151 145 140 142 137 131 131 126 128 142 146 149 146 145 149 150 147 147 145 142 140 138 137 136 136 135 133 134 137 136 132 130 129 130 128 125 123 122 121 121 120 115 109 101 96 95 92 90 86 81 77 73 70 67 63 58 52 46 42 38 34 32 29 27 25 25 25
128 110 80 335 329 318 317 311 253 182 162 169 148 133 253 267 283 174 146 141 143 139 135 136 130 125 123 112 95 128 137 142 141 139 141 143 142 143 142 142 141 140 138 137 137 137 133 133 138 139 136 133 133 134 132 130 129 128 126 126 124 120 114 105 99 98 96 93 89 84 79 74 70 66 62 58 54 49 44 39 35 32 30 29 28 26 26
102 106 93 48 30 280 236 217 229 219 187 185 144 113 252 256 222 170 152 146 146 143 138 137 133 129 132 144 165 151 140 138 134 131 133 136 138 140 139 139 139 138 138 137 138 138 134 133 140 144 141 138 138 138 138 136 135 133 130 128 127 126 121 111 103 100 98 96 92 87 82 76 72 67 62 58 54 50 46 41 37 35 33 32 31 29 27
124 115 129 169 183 248 233 204 217 222 184 165 111 80 266 231 175 157 153 151 151 149 147 146 144 145 156 171 177 156 146 144 140 138 136 135 137 139 139 139 139 139 138 137 137 137 134 133 141 148 148 142 141 142 143 142 140 137 133 131 131 132 130 121 109 101 99 97 93 88 83 78 73 67 62 58 54 50 47 43 39 37 36 35 33 30 28
157 128 139 203 210 253 237 186 183 203 179 130 100 106 245 202 166 160 159 157 155 154 155 155 157 166 176 173 165 154 147 145 144 143 141 139 139 140 139 139 139 138 138 138 137 137 135 134 142 150 151 146 144 146 147 145 145 141 136 134 133 134 136 132 118 105 99 96 92 88 84 79 74 68 61 56 52 49 46 43 40 38 37 35 32 30 27
142 132 141 256 251 251 232 176 175 187 156 108 152 221 223 176 164 163 160 157 157 158 161 165 169 169 126 129 141 145 142 140 141 141 140 140 142 142 141 140 138 137 139 139 138 139 140 138 140 146 152 151 148 148 149 148 146 144 140 138 136 135 138 138 129 112 101 95 90 87 84 79 74 67 60 54 50 48 45 41 39 37 36 34 31 29 27
126 131 122 323 275 246 175 139 167 187 145 170 219 233 178 158 158 155 153 155 158 160 157 148 134 115 108 119 134 140 139 138 139 139 138 138 140 143 142 141 139 138 138 138 138 140 144 143 139 140 148 153 153 152 152 150 147 148 147 145 141 139 139 140 133 120 106 97 90 87 83 77 71 66 59 52 48 46 43 40 38 36 35 32 30 27 27
113 68 86 120 259 223 150 131 132 242 184 197 214 155 128 153 153 147 150 154 153 150 141 125 125 124 122 129 137 138 139 141 140 140 140 139 142 145 144 143 142 140 137 138 140 141 143 144 141 137 142 151 155 155 153 153 155 157 155 152 149 146 143 141 135 126 116 104 93 85 79 73 68 63 57 50 46 43 41 38 37 35 34 32 29 26 25
128 122 177 194 233 230 167 143 163 204 184 184 170 139 134 147 149 149 152 150 144 141 137 132 131 128 129 135 139 138 141 143 140 138 139 140 143 146 146 145 144 141 138 139 143 144 145 145 142 139 141 148 154 155 156 160 162 157 151 152 155 154 150 148 143 134 126 114 98 85 77 69 63 59 54 48 45 42 39 37 35 34 33 31 29 26 22
156 177 212 230 249 255 237 180 228 179 138 136 155 150 147 152 159 159 151 144 141 139 137 135 133 135 138 141 142 143 144 144 141 138 139 143 147 148 148 148 147 143 140 141 144 145 146 147 145 143 143 146 150 150 149 149 145 138 132 130 135 148 159 162 156 143 129 119 105 90 78 65 59 57 51 46 43 40 38 36 34 32 32 30 28 26 22
201 200 226 293 343 342 2 16 11 74 102 121 140 143 146 149 150 148 143 142 143 142 140 137 136 141 143 141 144 147 144 142 142 141 143 148 150 149 149 151 149 145 140 142 144 144 146 150 151 150 148 148 148 145 140 135 132 130 126 119 119 133 150 162 165 154 130 118 112 95 77 64 59 56 48 43 41 38 35 35 32 30 29 29 27 24 20
140 296 315 345 359 341 26 66 58 52 57 80 118 134 141 134 127 133 136 137 140 142 141 138 139 144 145 142 144 147 144 144 146 145 146 149 150 151 153 154 153 148 143 141 142 144 148 153 155 154 153 151 148 142 135 132 133 134 130 123 121 125 130 141 152 148 129 118 114 97 79 67 62 58 49 42 38 34 32 32 30 28 27 26 25 22 18
136 239 277 7 34 5 9 54 94 104 95 88 90 107 118 116 116 125 132 135 140 142 141 139 139 142 145 144 144 145 146 148 149 147 147 149 151 154 155 155 154 152 147 142 141 146 151 155 157 159 159 156 151 145 139 141 146 143 137 134 132 128 124 128 134 135 129 121 110 97 86 75 68 62 53 44 37 31 30 29 27 26 24 23 23 20 16
68 252 219 118 70 19 5 27 73 115 122 115 110 112 118 120 121 124 129 134 136 137 140 141 139 140 146 148 146 145 149 150 147 146 147 150 153 156 156 155 156 155 151 145 145 150 154 154 155 158 159 159 158 154 150 152 155 153 150 150 147 139 130 127 128 128 125 118 104 94 90 82 75 69 59 49 39 30 26 28 28 26 23 22 22 20 19
204 222 189 164 145 124 223 169 131 124 123 119 119 123 128 130 133 134 133 133 135 138 144 146 141 140 147 150 147 147 149 147 144 145 147 150 153 155 155 155 157 157 155 151 148 152 156 156 154 154 154 156 159 158 154 154 158 159 158 156 155 150 139 132 133 129 121 115 104 93 89 83 76 73 66 54 44 34 26 27 29 27 25 23 20 17 18
221 207 169 156 134 111 158 166 144 135 130 124 127 136 138 137 139 140 138 138 140 143 147 149 147 144 146 148 146 142 143 145 146 149 152 152 153 154 155 156 157 157 158 155 150 150 157 160 158 157 157 158 159 159 159 163 166 164 159 157 159 157 149 145 146 137 122 116 110 100 93 86 77 69 64 57 48 38 31 28 30 30 27 23 20 17 14
210 183 157 152 134 129 150 153 142 139 135 127 128 134 136 137 139 139 139 142 144 144 146 149 149 147 146 147 146 140 140 147 152 153 154 153 154 155 156 157 157 157 158 157 151 148 155 162 164 164 166 167 168 168 173 179 175 162 155 158 162 161 158 160 161 150 135 126 120 110 101 95 82 64 56 57 51 41 34 30 30 32 30 25 23 21 16
151 144 135 129 120 122 126 124 121 129 133 129 129 134 136 136 137 137 137 138 141 142 139 141 146 147 146 146 144 140 143 151 155 153 151 152 154 156 157 159 160 160 161 162 156 149 152 162 170 173 175 176 179 181 183 184 176 161 152 160 164 162 163 168 168 160 152 145 134 115 102 100 88 63 51 56 51 40 34 30 26 28 30 28 24 22 19
128 115 98 83 86 107 115 109 110 127 133 128 127 130 133 133 134 134 135 137 140 141 138 135 139 144 145 142 140 141 145 151 153 151 149 150 154 157 160 163 165 166 167 166 161 154 152 156 166 175 179 180 182 183 184 184 177 165 156 165 168 165 165 169 171 170 167 164 153 132 114 114 101 64 45 48 43 31 27 26 23 23 25 24 22 20 18
125 124 111 95 88 124 149 143 139 147 142 129 126 129 133 132 130 127 127 130 134 136 137 137 137 137 138 137 138 141 145 147 148 150 151 154 158 161 164 166 168 168 169 168 164 160 158 155 157 165 170 172 172 171 174 179 177 166 161 170 170 165 164 170 177 181 182 179 171 160 152 153 136 76 40 37 32 17 14 17 17 16 19 18 14 13 14
136 133 124 133 154 170 169 141 130 131 132 130 131 132 131 129 127 124 123 126 128 130 133 137 138 136 136 138 139 141 144 146 148 151 155 158 161 163 165 167 168 169 170 171 169 167 167 162 158 156 156 158 163 165 168 173 172 163 163 172 171 165 165 171 180 190 194 194 188 180 180 193 191 140 34 18 5 353 356 2 3 4 11 13 7 3 5
123 88 72 112 135 134 122 115 118 120 127 132 133 132 133 133 132 131 131 130 130 130 132 138 140 140 141 143 144 144 146 148 152 156 159 160 162 163 165 168 171 171 173 174 173 172 173 170 163 159 156 157 161 164 169 173 171 162 159 165 169 169 173 182 193 201 201 201 200 193 189 204 219 216 247 326 325 324 329 341 351 355 359 5 4 359 357
96 96 98 106 115 120 123 127 128 129 133 135 133 135 139 138 133 132 136 136 134 136 137 139 139 140 142 146 149 151 153 155 157 158 160 161 162 164 167 169 169 169 173 178 178 177 177 175 170 167 166 167 167 170 176 180 177 166 159 161 165 169 176 186 202 209 203 202 203 200 197 207 226 230 234 271 301 308 308 320 339 347 347 350 356 354 351
100 105 116 120 124 129 133 135 135 136 138 139 139 141 141 138 135 136 140 138 136 140 142 142 141 143 147 151 153 154 155 156 157 159 162 164 165 167 170 172 173 172 175 180 183 181 179 179 179 176 173 173 177 182 184 184 182 176 171 173 175 179 187 195 196 196 195 199 203 204 203 208 220 222 226 256 283 291 293 302 319 333 335 334 342 350 350
107 108 120 125 128 131 136 138 136 136 140 143 144 144 144 142 141 141 143 143 143 145 145 146 147 150 153 154 155 155 156 157 159 162 165 166 169 172 175 179 182 182 182 184 186 184 182 183 184 184 182 183 191 195 191 189 188 185 183 185 187 191 204 211 196 186 188 200 209 211 210 213 219 219 222 245 276 284 286 289 298 314 320 319 329 346 348
121 124 134 141 140 141 149 151 142 140 143 143 140 139 137 136 137 141 145 145 145 146 149 152 155 156 156 156 156 157 157 157 160 164 168 171 174 178 181 184 187 188 189 190 190 188 187 188 190 191 191 194 200 201 195 192 189 186 186 191 193 197 211 212 193 185 190 204 217 220 220 221 224 224 225 233 260 288 288 283 287 300 309 310 317 337 342
147 153 162 162 156 152 155 154 145 140 138 133 133 134 134 138 143 146 145 145 148 153 157 158 158 158 158 158 158 158 156 155 159 167 173 177 181 183 185 188 192 195 196 196 195 193 193 194 195 196 196 197 201 202 198 193 188 187 192 199 200 205 214 208 191 185 193 205 218 226 228 228 229 233 235 233 237 274 296 291 286 289 298 306 310 318 331
145 144 148 151 148 145 146 146 145 142 137 134 138 140 141 144 146 145 148 153 158 160 160 160 160 160 159 158 157 158 160 165 171 177 180 183 184 184 186 190 195 199 201 200 200 200 200 199 199 200 200 199 201 204 203 199 197 198 204 207 207 211 215 207 198 196 198 202 207 213 221 226 226 230 236 233 228 246 286 300 293 285 291 301 303 302 315
135 132 133 141 143 141 140 141 143 141 136 137 142 142 144 149 150 153 159 163 163 161 160 159 158 158 158 159 162 166 170 175 178 181 184 186 186 187 189 194 198 201 202 202 203 205 205 204 204 205 205 204 203 204 204 200 201 208 216 216 215 217 216 211 208 208 209 208 201 192 194 202 208 217 229 232 229 239 262 277 280 280 286 295 295 291 300
148 143 138 140 143 141 141 144 146 142 139 142 146 146 150 156 160 163 166 165 162 161 160 158 157 160 164 168 171 173 176 179 181 183 184 186 187 189 193 198 201 201 200 201 203 204 205 207 208 210 211 210 209 208 206 204 207 219 225 219 215 217 220 217 213 211 214 216 204 188 187 192 198 208 221 226 223 228 234 236 248 269 277 285 292 288 288
159 152 148 149 150 147 146 150 151 147 143 143 150 155 161 166 167 166 165 163 162 163 163 163 165 167 169 171 173 175 178 181 184 184 184 185 188 192 196 201 205 205 205 206 205 202 204 208 211 212 214 216 215 213 213 214 217 224 227 217 211 215 221 218 213 211 211 206 196 191 192 195 196 199 205 209 213 217 218 222 238 257 258 265 282 277 271
154 152 150 149 150 149 148 149 152 152 150 150 155 162 166 169 168 165 163 163 165 166 167 167 167 167 168 169 173 178 183 185 187 187 187 188 190 194 200 207 212 214 216 214 207 203 206 211 213 214 217 220 221 220 219 219 220 225 230 226 218 216 216 213 211 211 210 202 198 198 198 197 198 200 203 206 210 213 214 219 231 238 237 243 256 256 260
152 153 152 150 149 149 148 149 154 158 158 158 161 166 169 169 168 165 163 165 167 169 169 168 166 166 170 173 176 182 188 190 191 191 190 190 190 193 200 208 212 215 216 212 208 209 214 215 215 216 220 224 227 227 225 223 224 228 234 233 223 215 211 210 212 214 210 203 202 205 206 205 206 210 210 212 214 215 216 221 227 230 231 234 238 241 255
162 161 159 155 154 153 153 154 158 162 163 164 167 170 173 172 170 167 166 168 171 173 173 172 171 173 178 182 186 191 194 196 197 196 193 191 191 193 201 209 212 213 212 210 210 213 218 219 219 221 224 226 230 231 230 228 228 230 234 234 225 216 213 215 219 221 217 212 210 212 214 215 215 216 217 219 221 221 221 224 228 233 236 235 233 236 248
164 163 162 160 160 161 160 159 159 162 167 170 171 173 175 175 174 173 173 173 174 176 179 180 182 184 186 190 193 197 199 201 202 200 198 198 199 201 207 216 218 217 215 215 214 215 218 222 224 226 227 230 232 232 231 231 230 229 232 234 229 221 219 223 226 226 226 225 223 221 221 221 222 224 227 227 227 226 226 226 230 236 239 238 237 239 244
169 167 165 166 168 168 166 164 163 166 173 177 176 176 178 179 178 177 176 176 177 180 184 186 187 189 191 193 196 198 201 204 205 204 204 208 210 210 213 220 223 221 220 221 221 221 222 225 228 231 235 238 237 233 231 231 230 228 228 231 231 228 227 230 231 230 231 234 233 229 225 225 227 231 234 234 232 232 231 230 234 240 243 241 240 243 245
175 172 172 174 176 175 173 172 171 171 177 183 182 180 180 182 182 180 178 178 181 185 187 189 191 193 195 195 196 198 202 205 206 205 206 211 216 218 220 224 227 228 226 226 227 227 226 227 230 236 240 240 236 232 231 232 232 230 227 228 231 233 233 235 236 234 234 235 236 233 231 231 233 236 239 240 239 238 236 234 237 242 244 242 242 244 246
180 183 183 182 180 179 180 181 183 184 187 189 188 186 185 186 186 184 181 181 184 187 190 192 195 198 199 200 202 206 210 211 211 209 206 208 218 224 224 225 229 233 234 232 230 228 226 227 231 233 233 231 228 228 230 233 236 233 228 228 232 235 236 237 237 235 234 236 238 237 236 237 238 240 243 244 243 242 242 241 241 243 243 243 242 244 246
185 188 190 188 187 189 191 193 196 197 194 189 187 191 193 192 190 188 188 188 190 193 196 199 202 206 209 210 210 211 213 215 215 215 214 215 222 229 229 228 230 234 237 236 231 226 224 225 227 224 221 222 225 226 229 234 237 235 231 230 233 235 236 236 235 235 237 240 240 239 239 240 242 245 247 245 241 241 243 244 243 243 244 245 245 246 247
187 187 189 191 193 197 198 197 196 194 189 184 185 195 198 197 194 193 194 196 198 201 203 205 208 213 216 216 214 212 211 211 214 219 220 222 225 230 232 231 234 237 238 237 234 228 223 222 222 218 218 223 226 227 229 233 237 237 236 235 235 235 236 236 235 235 237 239 240 243 243 243 244 246 244 239 234 235 239 243 244 244 244 246 247 246 245
189 190 192 192 192 192 191 189 186 186 188 190 193 195 196 197 198 198 197 199 201 204 206 208 212 216 218 219 219 220 219 216 214 219 223 224 226 230 232 234 239 241 238 234 232 229 225 223 223 223 223 227 229 230 231 234 236 238 240 238 236 235 236 236 235 236 238 241 245 248 247 242 239 238 235 231 231 236 242 247 248 247 246 247 248 248 246
194 195 195 193 189 186 182 181 183 189 193 193 193 193 193 194 196 199 200 201 202 204 206 210 214 217 219 221 222 225 225 223 222 224 226 226 228 232 234 236 239 242 239 234 231 228 225 224 226 228 230 231 233 234 235 235 236 238 241 240 237 235 235 236 239 243 245 247 250 250 244 236 232 230 230 231 237 243 247 249 250 250 249 249 250 249 246
191 190 190 190 190 188 187 187 191 194 194 192 193 193 191 189 191 198 203 203 203 205 209 212 216 219 221 223 224 225 226 225 225 227 229 229 229 231 232 234 236 238 238 237 234 230 226 225 228 231 234 236 238 240 239 236 236 239 242 242 240 238 237 238 241 246 249 251 251 246 237 231 229 230 233 237 242 244 246 248 252 255 255 253 251 250 247
186 187 190 192 193 193 194 196 196 196 195 195 195 195 193 192 194 201 204 204 203 204 207 212 217 220 222 222 223 224 225 224 224 226 229 232 232 231 231 232 235 237 239 239 237 234 230 229 231 235 238 241 244 246 241 236 236 240 243 244 244 243 241 240 241 244 248 252 250 241 232 228 229 233 237 239 240 241 244 248 253 255 255 252 249 248 247
190 192 193 194 195 196 198 200 199 199 199 198 198 198 199 198 198 201 204 205 205 205 206 210 216 221 222 222 222 223 224 224 225 226 229 232 234 234 234 235 236 238 241 242 240 237 235 235 237 239 241 243 245 246 241 235 235 239 243 246 248 248 245 242 241 244 248 250 245 235 229 230 234 237 239 238 238 239 244 249 253 255 254 252 250 249 246